Time,TemperatureF,DewpointF,PressureIn,WindDirection,WindDirectionDegrees,WindSpeedMPH,WindSpeedGustMPH,Humidity,HourlyPrecipIn,Conditions,Clouds,dailyrainin,SoftwareType,DateUTC
2013-02-13 00:00:00,29.8,24.7,30.22,WSW,244,4.0,4.0,81,0.00,,,0.00,Wunderground v.1.15,2013-02-13 05:00:00,
2013-02-13 00:10:00,29.6,24.5,30.22,WSW,246,4.0,5.0,81,0.00,,,0.00,Wunderground v.1.15,2013-02-13 05:10:00,
2013-02-13 00:15:00,29.6,24.5,30.22,West,263,4.0,5.0,81,0.00,,,0.00,Wunderground v.1.15,2013-02-13 05:15:00,
2013-02-13 00:20:00,29.6,24.5,30.21,West,268,4.0,4.0,81,0.00,,,0.00,Wunderground v.1.15,2013-02-13 05:20:00,
2013-02-13 00:25:00,29.6,24.5,30.22,WSW,238,4.0,4.0,81,0.00,,,0.00,Wunderground v.1.15,2013-02-13 05:25:00,
2013-02-13 00:30:00,29.6,24.2,30.21,WSW,239,4.0,5.0,80,0.00,,,0.00,Wunderground v.1.15,2013-02-13 05:30:00,
2013-02-13 00:35:00,29.7,24.0,30.21,West,263,5.0,5.0,79,0.00,,,0.00,Wunderground v.1.15,2013-02-13 05:35:00,
2013-02-13 00:40:00,29.6,23.9,30.21,WSW,246,5.0,5.0,79,0.00,,,0.00,Wunderground v.1.15,2013-02-13 05:40:00,
2013-02-13 00:45:00,29.7,24.0,30.21,WSW,250,5.0,6.0,79,0.00,,,0.00,Wunderground v.1.15,2013-02-13 05:45:00,
2013-02-13 00:50:00,29.9,23.9,30.21,West,261,6.0,8.0,78,0.00,,,0.00,Wunderground v.1.15,2013-02-13 05:50:00,
2013-02-13 00:55:00,29.8,23.8,30.21,WSW,258,7.0,8.0,78,0.00,,,0.00,Wunderground v.1.15,2013-02-13 05:55:00,
2013-02-13 01:00:00,29.6,23.6,30.21,WSW,246,6.0,6.0,78,0.00,,,0.00,Wunderground v.1.15,2013-02-13 06:00:00,
2013-02-13 01:10:00,29.4,23.7,30.21,SW,227,5.0,9.0,79,0.00,,,0.00,Wunderground v.1.15,2013-02-13 06:10:00,
2013-02-13 01:15:00,29.3,23.6,30.21,WSW,255,5.0,9.0,79,0.00,,,0.00,Wunderground v.1.15,2013-02-13 06:15:00,
2013-02-13 01:20:00,29.2,23.8,30.21,WSW,257,4.0,4.0,80,0.00,,,0.00,Wunderground v.1.15,2013-02-13 06:20:00,
2013-02-13 01:25:00,29.2,23.8,30.21,WSW,257,3.0,9.0,80,0.00,,,0.00,Wunderground v.1.15,2013-02-13 06:25:00,
2013-02-13 01:30:00,29.1,23.7,30.21,West,274,3.0,9.0,80,0.00,,,0.00,Wunderground v.1.15,2013-02-13 06:30:00,
2013-02-13 01:40:00,29.0,23.9,30.21,West,274,2.0,9.0,81,0.00,,,0.00,Wunderground v.1.15,2013-02-13 06:40:00,
2013-02-13 01:45:00,29.0,23.9,30.21,West,274,2.0,9.0,81,0.00,,,0.00,Wunderground v.1.15,2013-02-13 06:45:00,
2013-02-13 01:50:00,29.1,24.0,30.21,West,274,2.0,9.0,81,0.00,,,0.00,Wunderground v.1.15,2013-02-13 06:50:00,
2013-02-13 01:55:00,29.0,23.9,30.21,West,274,3.0,9.0,81,0.00,,,0.00,Wunderground v.1.15,2013-02-13 06:55:00,
2013-02-13 02:00:00,29.0,23.9,30.21,West,267,3.0,9.0,81,0.00,,,0.00,Wunderground v.1.15,2013-02-13 07:00:00,
2013-02-13 02:05:00,29.1,23.7,30.21,SW,232,3.0,9.0,80,0.00,,,0.00,Wunderground v.1.15,2013-02-13 07:05:00,
2013-02-13 02:15:00,29.2,23.2,30.21,West,261,4.0,9.0,78,0.00,,,0.00,Wunderground v.1.15,2013-02-13 07:15:00,
2013-02-13 02:20:00,29.2,23.2,30.21,West,261,3.0,3.0,78,0.00,,,0.00,Wunderground v.1.15,2013-02-13 07:20:00,
2013-02-13 02:25:00,29.2,23.2,30.20,West,261,2.0,9.0,78,0.00,,,0.00,Wunderground v.1.15,2013-02-13 07:25:00,
2013-02-13 02:30:00,29.2,23.2,30.20,West,261,1.0,1.0,78,0.00,,,0.00,Wunderground v.1.15,2013-02-13 07:30:00,
2013-02-13 02:35:00,29.2,23.2,30.20,West,261,1.0,9.0,78,0.00,,,0.00,Wunderground v.1.15,2013-02-13 07:35:00,
2013-02-13 02:40:00,29.2,23.2,30.20,West,261,0.0,9.0,78,0.00,,,0.00,Wunderground v.1.15,2013-02-13 07:40:00,
2013-02-13 02:45:00,29.2,23.2,30.19,West,261,0.0,9.0,78,0.00,,,0.00,Wunderground v.1.15,2013-02-13 07:45:00,
2013-02-13 02:50:00,29.2,23.2,30.19,West,261,0.0,9.0,78,0.00,,,0.00,Wunderground v.1.15,2013-02-13 07:50:00,
2013-02-13 02:55:00,29.2,23.2,30.19,West,261,0.0,9.0,78,0.00,,,0.00,Wunderground v.1.15,2013-02-13 07:55:00,
2013-02-13 03:00:00,29.2,23.2,30.19,West,261,0.0,9.0,78,0.00,,,0.00,Wunderground v.1.15,2013-02-13 08:00:00,
2013-02-13 03:05:00,29.1,23.1,30.19,West,261,0.0,9.0,78,0.00,,,0.00,Wunderground v.1.15,2013-02-13 08:05:00,
2013-02-13 03:15:00,29.0,23.3,30.19,West,261,0.0,9.0,79,0.00,,,0.00,Wunderground v.1.15,2013-02-13 08:15:00,
2013-02-13 03:20:00,28.9,23.2,30.19,West,261,0.0,9.0,79,0.00,,,0.00,Wunderground v.1.15,2013-02-13 08:20:00,